Location: Mutzig
(48.5389°N, 7.4542°E)
Time: 17:56:56
(UTC+00:00)

Daily predictions for brighter satellites

Satellite Brightness Start Highest point End
(mag) Time Altitude Azimuth Time Altitude Azimuth Time Altitude Azimuth
Cosmos 1825 Rocket 4.1 20:12:15 10° SSE 20:16:25 42° E 20:20:39 10° NNE
ATLAS CENTAUR R/B 2.6 20:14:53 10° NNW 20:18:10 28° NE 20:21:23 10° E
Cosmos 1703 3.5 20:17:14 10° S 20:20:59 48° E 20:24:45 10° NNE
COSMOS 2428 3.8 20:17:31 10° SSE 20:21:56 24° ESE 20:26:23 10° NE
Cosmos 1812 Rocket 3.9 20:17:39 10° NNW 20:21:58 66° W 20:26:15 10° S
Cosmos 1844 3.9 20:17:47 10° NNW 20:23:36 73° ENE 20:29:18 10° SE
Cosmos 2322 4.2 20:20:19 10° S 20:25:38 41° ESE 20:30:59 10° NE
Cosmos 1602 Rocket 4.2 20:25:27 10° SSW 20:29:49 59° WNW 20:34:14 10° N
Cosmos 2263 Rocket 4.3 20:27:29 10° NW 20:31:28 21° W 20:35:28 10° SSW
Nadezhda 1 Rocket 4.3 20:26:09 10° NNW 20:32:33 74° W 20:38:54 10° S
Cosmos 1709 Rocket 4.2 20:26:27 10° S 20:32:33 57° E 20:38:48 10° NNE
MetOp-B 4.4 20:29:17 10° S 20:34:37 71° WSW 20:40:00 10° NNW
Atlas Centaur 2 4.1 20:31:49 10° SSW 20:35:11 15° S 20:38:47 10° SE
Cosmos 2237 Rocket 4.0 20:33:47 10° ESE 20:35:59 12° E 20:38:11 10° ENE
Terra 2.8 20:31:45 10° SE 20:36:03 35° ENE 20:40:23 10° N
CARTOSAT-1 4.0 20:32:57 10° SE 20:37:07 50° ENE 20:41:18 10° N
Cosmos 2333 4.5 20:32:00 10° S 20:37:23 49° ESE 20:42:51 10° NE
Cosmos 2219 Rocket 2.8 20:32:52 10° S 20:37:52 35° ESE 20:42:53 10° NE
Cosmos 2360 Rocket 2.2 20:33:59 10° SSW 20:39:38 90° SE 20:45:21 10° NNE
IGS 5A 3.5 20:36:07 10° S 20:40:16 80° WSW 20:44:28 10° NNW
Cosmos 2333 Rocket 2.6 20:42:14 10° S 20:47:35 44° ESE 20:53:00 10° NE
ATLAS 2AS CENTAUR R/B 3.9 20:43:29 10° NW 20:50:46 41° NNE 20:57:30 10° E
Cosmos 1315 Rocket 3.4 20:47:03 10° N 20:51:00 44° ENE 20:54:13 14° SE
Resurs 01 Rocket 3.4 20:48:29 10° SSW 20:52:16 28° W 20:56:05 10° NW
Cosmos-2242 3.3 20:50:11 10° NNW 20:54:31 67° W 20:58:50 10° S
Cosmos 1818 3.7 20:49:29 10° SW 20:54:56 81° NW 21:00:25 10° NE
Cosmos 773 Rocket 4.0 20:52:23 10° S 20:57:38 68° ESE 21:02:54 10° NNE
SL-16 R/B 4.0 20:53:39 10° WSW 20:58:50 36° NW 21:04:04 10° NNE
Cosmos 2221 3.5 20:55:26 10° N 20:59:26 33° ENE 21:02:29 15° SE
ERS-1 Rocket 3.0 20:56:51 12° SSE 21:01:33 89° E 21:06:38 10° NNW
GEOS 3 Rocket 3.7 20:57:57 10° NE 21:03:23 85° SE 21:08:47 10° SW
USA 215 3.3 21:00:20 10° ENE 21:06:47 56° SE 21:13:11 10° SW
Cosmos 2278 Rocket 2.8 21:03:01 10° NNW 21:08:30 47° NE 21:13:09 14° SE
Cosmos 1892 4.3 21:07:01 15° ESE 21:08:40 19° E 21:11:26 10° NE
ATLAS 5 CENTAUR R/B 2.0 21:07:27 10° SW 21:11:37 67° NW 21:16:22 10° NE
Meteor 1-11 4.2 21:06:37 10° S 21:12:15 86° E 21:17:58 10° NNE
Cosmos 1844 Rocket 3.6 21:08:01 10° NW 21:13:14 42° WSW 21:18:16 11° S
Cosmos 1400 Rocket 4.0 21:10:06 10° NNW 21:13:48 38° W 21:17:27 10° SSW
Gblst 52 Del rocket 4.3 21:08:48 10° WNW 21:14:29 85° SSW 21:20:33 11° ESE
SPOT 5 3.0 21:13:56 14° S 21:18:17 76° WSW 21:23:07 10° NNW
Lacrosse 5 rocket 3.7 21:16:50 10° WNW 21:20:20 25° N 21:23:41 10° NE
USA 81 4.1 21:19:52 10° S 21:25:09 83° W 21:30:29 10° N
Cosmos 2058 3.8 21:25:00 21° SE 21:27:02 32° E 21:30:45 10° NNE
BREEZE M DEB (TANK) 3.1 21:25:35 10° W 21:27:30 22° SSW 21:27:39 22° SSW
Cosmos 2181 Rocket 4.2 21:22:23 10° NNW 21:28:43 71° W 21:34:15 13° S
Cosmos 1408 4.2 21:29:05 17° ESE 21:30:08 20° E 21:32:46 10° NE
In-Cosmos 22 Rocket 4.5 21:29:55 19° SSE 21:33:23 46° E 21:38:27 10° NNE
Cosmos 2074 Rocket 4.0 21:29:15 16° S 21:34:21 67° E 21:40:30 10° NNE
TSX-5 3.9 21:31:50 10° NNW 21:35:15 60° ENE 21:37:36 23° SE
Cosmos 1076 Rocket 4.2 21:36:08 23° SE 21:38:13 38° E 21:42:12 10° NNE
Cosmos 1680 Rocket 4.2 21:35:41 21° SSE 21:38:33 36° ESE 21:43:23 10° NE
USA 267 3.3 21:34:05 13° ESE 21:40:02 88° NNE 21:46:39 10° NW
Cosmos 2084 3.8 21:41:22 10° NW 21:45:44 54° SW 21:48:05 25° SSE
Cosmos 1842 Rocket 3.6 21:41:58 10° NNW 21:46:20 72° W 21:49:02 22° S
JB-3 4.2 21:43:56 10° NNE 21:47:48 74° ESE 21:49:57 25° S
Cosmos 2151 4.5 21:47:18 19° ESE 21:48:48 23° E 21:52:10 10° NE
MTI 3.6 21:48:40 10° NNE 21:51:46 88° WNW 21:53:10 30° SSW
Cosmos 923 Rocket 4.0 21:52:19 20° S 21:55:58 64° ESE 22:01:13 10° NNE
ATLAS CENTAUR R/B 2.0 21:53:43 10° NW 21:57:06 35° WSW 21:58:26 26° SSW
Cosmos 1825 3.3 21:58:09 25° ESE 21:59:10 29° E 22:02:29 10° NNE
Cosmos 2369 Rocket 4.4 21:56:33 10° N 22:00:21 18° NE 22:04:08 10° E
ALOS 2 4.0 21:58:03 17° ESE 22:00:29 29° ENE 22:04:16 10° N
Cosmos 1980 3.8 21:56:55 20° S 22:00:46 58° ESE 22:06:20 10° NE
Cosmos 967 Rocket 4.5 21:56:33 10° SSW 22:02:59 74° ESE 22:09:28 10° NE
COSMOS 2428 3.2 22:00:08 10° SW 22:05:45 63° WNW 22:11:25 10° NNE
Cosmos 1869 3.9 22:03:24 10° NNW 22:07:15 49° W 22:09:22 24° SSW
GP-B 4.5 22:05:55 10° NNE 22:09:41 26° E 22:11:23 21° ESE
NOSS 0 Rocket 3.9 22:07:32 13° SSW 22:13:08 82° ESE 22:19:20 10° NNE
Terra 3.1 22:10:33 15° SSW 22:13:49 32° W 22:18:05 10° NNW
Cosmos 1624 Rocket 4.2 22:08:49 10° NNW 22:14:03 63° ENE 22:16:57 26° SE
NOSS 3-4 (A) 3.8 22:07:26 10° NW 22:14:23 90° NE 22:19:46 21° SE
NOSS 3-4 (C) 3.8 22:07:32 10° NW 22:14:30 89° NE 22:19:55 21° SE
Cosmos 2237 Rocket 2.2 22:14:58 20° SSW 22:19:02 75° ESE 22:24:45 10° NNE
Genesis I 3.4 22:18:36 38° S 22:19:39 50° ESE 22:23:27 10° NE
Cosmos 2344 3.7 22:16:02 18° SSW 22:21:40 55° ESE 22:29:23 10° NE
Cosmos 2219 Rocket 3.3 22:16:22 10° SW 22:21:42 44° NW 22:27:05 10° NNE
Elektron 1 4.3 22:21:22 27° SSW 22:23:03 73° SE 22:28:29 10° NE
Atlas Centaur 2 4.4 22:20:04 10° SW 22:21:21 12° SSW 22:21:21 12° SSW
NOSS 3-3 (C) 4.5 22:18:44 10° WSW 22:24:39 62° NW 22:31:25 10° NE
DELTA 2 R/B (1) 4.2 22:24:43 10° SW 22:29:32 30° S 22:30:03 30° SSE
Thor Agena Rocket 3.4 22:25:20 10° NNE 22:30:29 84° ESE 22:33:18 27° SSW
Cosmos 2333 Rocket 3.6 22:26:41 10° WSW 22:31:57 37° NW 22:37:17 10° NNE
Cosmos 2221 4.2 22:33:12 10° NNW 22:36:52 27° W 22:39:20 16° SW
Iridium 2 4.0 22:37:22 10° NNW 22:41:08 58° W 22:42:26 36° SSW
BREEZE-M DEB (TANK) 1.2 22:37:27 10° WNW 22:41:12 74° SSW 22:41:22 71° SSE
Cosmos 1371 Rocket 4.1 22:36:33 10° NNW 22:41:48 71° WSW 22:44:15 32° S
ATLAS 2AS CENTAUR R/B 2.8 22:34:46 10° NW 22:42:19 72° SW 22:46:25 27° SSE
EO 1 Del DPAF 3.3 22:39:49 10° N 22:43:35 74° WNW 22:44:59 37° SSW
Cosmos 1892 4.0 22:41:59 19° SW 22:44:07 34° WNW 22:47:39 10° N
MOS 1-B Rocket 4.4 22:37:32 10° NNE 22:45:25 90° WNW 22:49:57 23° SSW
Cosmos 1766 Rocket 3.8 22:44:24 37° SSE 22:45:51 56° E 22:50:10 10° NNE
Okean 3 Rocket 3.6 22:47:03 38° S 22:48:39 70° E 22:53:05 10° NNE
Cosmos 1328 Rocket 3.8 22:44:36 10° N 22:48:52 56° ENE 22:50:25 35° SE
Aureole 2 Rocket 1.8 22:46:03 10° NNW 22:48:54 79° ENE 22:48:59 77° E
USA 215 3.7 22:43:25 10° NE 22:49:54 64° NNW 22:56:21 10° WSW
Cosmos 1606 2.7 22:47:20 10° N 22:51:14 75° E 22:52:19 45° SSE
Cosmos 2112 Rocket 4.2 22:48:24 21° SW 22:52:03 70° WNW 22:57:25 10° NNE
Cosmos 2278 Rocket 3.3 22:47:25 10° NW 22:52:25 33° WSW 22:54:59 22° SSW
Cosmos 2218 Rocket 4.2 22:50:54 29° SSE 22:54:09 60° E 23:00:22 10° NNE
Cosmos 2297 3.7 22:48:24 10° NNW 22:54:11 84° ENE 22:57:11 30° SSE
Cosmos 158 Rocket 4.3 22:52:56 20° SW 22:56:16 58° WNW 23:01:08 10° NNE
Cosmos 1420 Rocket 4.0 22:52:44 10° NNW 22:58:02 78° ENE 23:00:36 31° SSE
Cosmos 2366 rocket 4.2 22:56:35 29° SSE 22:59:50 63° E 23:06:07 10° NNE
Lacrosse 5 rocket 3.0 22:56:41 10° NW 23:00:23 32° NNE 23:03:54 10° E
Cosmos 1943 Rocket 2.8 22:55:14 10° NNW 23:00:48 51° NE 23:04:40 19° SE
Cosmos 1633 3.9 23:01:11 25° ESE 23:01:41 26° E 23:04:46 10° NNE
SL-16 R/B 2.3 23:00:46 32° S 23:03:22 64° ESE 23:09:00 10° NNE
Cosmos 1408 4.0 23:03:24 21° WSW 23:04:57 30° WNW 23:08:10 10° N
Cosmos 2056 Rocket 3.9 23:00:26 10° NNW 23:05:42 53° WSW 23:07:58 32° SSW
Cosmos 1959 Rocket 4.5 23:06:20 31° S 23:09:26 75° E 23:15:39 10° NNE
Cosmos 2341 Rocket 4.2 23:11:46 25° SSW 23:15:31 65° WNW 23:21:43 10° N
Cosmos 332 Rocket 3.8 23:14:35 10° NNW 23:19:25 77° ENE 23:21:28 34° SSE
USA 267 4.0 23:21:24 27° SSW 23:23:32 33° SW 23:29:23 10° WNW
Meteor 2-3 Rocket 3.7 23:21:02 34° S 23:23:37 76° E 23:29:20 10° NNE
IRIDIUM 104 4.4 23:23:26 33° SSW 23:25:47 72° W 23:31:02 10° N
Cosmos 2151 4.1 23:23:52 24° SW 23:25:53 37° WNW 23:29:53 10° N
Helios 1A 2.9 23:24:53 45° SSE 23:26:09 87° WSW 23:30:21 10° NNW
Cosmos 405 3.3 23:24:54 10° N 23:28:24 56° ENE 23:29:08 45° ESE
Meteor 1-26 Rocket 4.3 23:26:27 10° NNW 23:32:29 80° W 23:35:20 33° S
Cosmos 1452 Rocket 3.4 23:27:33 10° NNW 23:32:50 81° WSW 23:35:06 35° SSE
CZ-4C R/B 3.4 23:26:55 10° NW 23:33:48 59° NE 23:41:48 10° ESE
SL-8 Rocket 4.2 23:30:59 26° SSW 23:34:29 62° WNW 23:40:36 10° N
Cosmos 1825 4.0 23:32:56 17° WSW 23:34:41 23° WNW 23:37:47 10° NNW
COSMOS 2455 2.8 23:28:43 10° NW 23:34:48 89° ENE 23:38:24 26° SSE
Cosmos 1340 2.7 23:34:23 47° SW 23:35:17 68° WNW 23:39:04 10° N
PSLV R/B 4.3 23:31:25 10° NNE 23:35:25 40° E 23:36:34 33° SE
ALOS 2 3.6 23:35:27 28° SW 23:36:44 34° W 23:40:46 10° NNW
Cosmos 1933 4.0 23:33:24 10° NNW 23:37:15 44° W 23:38:13 36° SW
Cosmos 1408 Rocket 3.6 23:35:56 40° SSW 23:37:26 73° W 23:41:52 10° N
SL-16 R/B 4.4 23:33:38 10° ESE 23:38:35 26° NE 23:43:33 10° N
Cosmos 1151 Rocket 3.7 23:34:41 10° NNW 23:38:47 42° W 23:40:03 33° SW
Cosmos 1727 Rocket 4.0 23:38:41 10° NNW 23:44:55 76° W 23:48:04 31° S
APEX 3.3 23:42:18 10° NW 23:44:22 40° WNW 23:44:22 40° WNW
Cosmos 2369 Rocket 2.3 23:39:46 10° NNW 23:45:23 74° ENE 23:48:49 24° SE
Resurs 1-4 Rocket 4.3 23:42:45 10° NE 23:45:34 14° E 23:48:21 10° ESE
Cosmos 44 3.4 23:43:38 25° WSW 23:46:01 61° NW 23:50:26 10° NNE
Cosmos 1500 Rocket 3.6 23:44:49 42° SSE 23:46:14 71° E 23:50:37 10° NNE
GP-B 4.2 23:43:01 10° NNW 23:47:03 34° W 23:48:50 25° WSW
SL-4 R/B 3.4 23:48:59 13° NW 23:48:59 13° NW 23:49:25 10° NW
Cosmos 371 Rocket 3.8 23:44:23 10° NW 23:49:00 44° WSW 23:50:25 34° SSW
ISS -1.1 23:51:00 10° ESE 23:51:00 10° ESE 23:51:07 10° E
SeaSat 1 4.2 23:46:24 10° ENE 23:49:47 18° ESE 23:51:20 16° SE
Helios 1B rocket 2.8 23:50:11 10° NNE 23:54:14 52° E 23:55:23 39° SSE
CREW DRAGON DEMO-1 DEB 3.3 23:54:49 25° W 23:56:23 59° NNW 23:59:25 10° ENE
